[[{"header":{"parameterUnit":"m.s-1","parameterCategory":1,"la1":30.2991,"la2":30.254,"lo1":-89.0895,"lo2":-89.0444,"dy":0.0017,"dx":0.0017,"nx":28,"ny":28,"refTime":"2024-02-22T03:00:00:Z","depth":0,"parameterNumber":2,"parameterNumberName":"U-component_of_WINDS"},"data":[0,0,0,0,0,0,0,0,0,0,0,0,0,0,0,0,0,0,0,0,0,0,0,0,0,0,0,0,0,0,0,0,0,0,0,0,0,0,0,0,0,0,0,0,0,0,0,0,0,0,0,0,0,0,0,0,0,0,4.2006,4.2006,0,4.2093,4.2094,4.2095,4.2096,4.2095,4.2094,4.2093,4.2186,4.2189,4.2193,0,0,0,0,0,0,0,0,0,0,0,0,0,4.1846,4.1849,4.2005,4.2007,4.2008,4.2093,4.2094,4.2095,4.2096,4.2095,4.2093,4.2092,4.2185,4.2189,4.2193,0,0,0,0,0,0,0,0,0,0,0,0,0,4.1922,4.185,4.2005,4.2018,4.202,4.2092,4.2094,4.2095,4.2096,4.2095,4.2093,4.2091,4.2183,4.2188,4.2194,4.226,0,0,4.221,4.2212,0,0,0,0,0,0,0,0,4.1918,4.1928,4.2015,4.2018,4.202,4.2082,4.2072,4.2151,4.2097,4.2068,4.2093,4.2091,4.2153,4.216,4.2181,4.2264,4.2268,4.221,4.2213,4.2216,4.2217,0,0,0,0,0,0,0,4.1913,4.1925,4.204,4.2017,4.2019,4.2022,4.2031,4.2087,4.2119,4.207,4.207,4.208,4.2154,4.2176,4.2183,4.2269,4.221,4.2215,4.2218,4.222,4.2416,4.2418,0,0,0,0,0,0,4.1904,4.192,4.2037,4.2043,4.1964,4.2026,4.2036,4.2064,4.2118,4.2125,4.2082,4.208,4.2167,4.2177,4.2186,4.2269,4.2216,4.2221,4.2224,4.2414,4.2416,4.2418,0,0,0,0,0,0,4.1901,4.1915,4.2034,4.1982,4.1997,4.2031,4.2061,4.2066,4.2088,4.2127,4.2133,4.2098,4.2166,4.2179,4.2242,4.2272,4.2223,4.2228,4.2411,4.2414,4.2417,4.2433,0,0,0,0,0,0,4.1896,4.1913,4.1937,4.1982,4.2,4.2086,4.2063,4.2069,4.2097,4.2095,4.2143,4.215,4.2166,4.2234,4.2247,4.2278,4.2232,4.2409,4.2413,4.2416,4.243,4.2436,4.2441,0,0,0,0,0,4.189,4.1938,4.1938,4.1952,4.203,4.2088,4.2098,4.2114,4.2099,4.2124,4.215,4.2148,4.2267,4.2241,4.2255,4.2288,4.2407,4.2412,4.2416,4.2427,4.2435,4.2441,0,0,0,0,0,0,4.1895,4.1944,4.1944,4.2007,4.2044,4.2088,4.2119,4.2122,4.2163,4.216,4.2181,4.2192,4.2255,4.2279,4.2248,4.2357,4.2335,4.2343,4.2339,4.2347,4.2352,4.2345,4.2236,0,0,0,0,0,4.1904,4.1945,4.1986,4.2038,4.2056,4.2085,4.2111,4.2121,4.2159,4.2175,4.2205,4.2244,4.229,4.232,4.2365,4.2434,4.2446,4.2465,4.2471,4.2475,4.2481,4.2523,4.2532,4.2433,4.2433,4.2433,0,0,4.1921,4.1953,4.1978,4.204,4.2069,4.2113,4.2097,4.2144,4.2179,4.2182,4.2243,4.2268,4.2313,4.238,4.2412,4.2402,4.2512,4.2481,4.2484,4.2488,4.2528,4.2538,4.2546,4.2436,4.2436,4.2435,0,0,4.1976,4.2003,4.205,4.2081,4.2125,4.2145,4.2156,4.2201,4.2217,4.2279,4.2284,4.2327,4.2405,4.2438,4.2464,4.2537,4.2538,4.2551,4.2581,4.2621,4.2629,4.2636,4.2663,4.2672,4.2558,4.2558,4.2558,0,4.1992,4.2057,4.2075,4.2123,4.2151,4.2157,4.2207,4.2236,4.2293,4.2313,4.2302,4.2403,4.2433,4.251,4.2528,4.2549,4.2565,4.2544,4.2626,4.2633,4.264,4.2666,4.2676,4.2559,4.2559,4.2559,4.2559,0,4.2076,4.2122,4.2155,4.221,4.2243,4.2291,4.2318,4.235,4.2359,4.2381,4.2446,4.2484,4.2537,4.2557,4.2565,4.2636,4.2628,4.2621,4.2599,4.2651,4.2675,4.2685,4.2561,4.256,4.256,4.256,0,0,4.2131,4.2198,4.221,4.2237,4.2288,4.2325,4.2376,4.2428,4.2455,4.2497,4.2541,4.2609,4.2604,4.2635,4.2649,4.2684,4.2741,4.2673,4.2675,4.2684,4.2823,4.2827,4.2837,4.2743,4.2745,4.2747,4.2819,0,4.2191,4.2279,4.2299,4.2376,4.242,4.2429,4.2474,4.2512,4.2535,4.2578,4.2605,4.2653,4.2642,4.2661,4.2697,4.2726,4.2769,4.2722,4.2786,4.2788,4.2772,4.285,4.2854,4.292,4.2829,4.283,4.2832,0,4.2271,4.2314,4.2395,4.2444,4.2464,4.2503,4.2554,4.2594,4.264,4.2655,4.2691,4.2702,4.2758,4.2736,4.2815,4.2782,4.2811,4.283,4.2833,4.2838,4.2811,4.2857,4.2941,4.2951,4.2847,4.2846,4.2844,0,4.2304,4.2382,4.2442,4.2464,4.2522,4.2551,4.2577,4.262,4.2651,4.2698,4.2718,4.2771,4.2799,4.2841,4.2867,4.2848,4.2945,4.2924,4.296,4.296,4.2978,4.2976,4.3067,4.2998,4.2998,4.2998,4.2998,0,4.2368,4.2417,4.2457,4.2493,4.255,4.2575,4.2631,4.2658,4.2697,4.2741,4.2754,4.2795,4.2827,4.2874,4.2895,4.2959,4.2972,4.2986,4.2991,4.2984,4.2982,4.3002,4.2997,4.3001,4.3,4.2999,4.2999,0,4.2412,4.2441,4.2506,4.2558,4.2572,4.2612,4.2657,4.2694,4.2719,4.2775,4.2789,4.283,4.2885,4.2916,4.2987,4.3001,4.3072,4.3075,4.3056,4.3058,4.3092,4.3088,4.3197,4.3214,4.3135,4.3136,4.3136,0,4.2449,4.2488,4.2544,4.2574,4.2601,4.2648,4.2681,4.2709,4.2742,4.2799,4.283,4.2887,4.2933,4.3023,4.3059,4.3114,4.3118,4.3153,4.3127,4.312,4.3119,4.3116,4.3121,4.3157,4.3158,4.3158,4.3159,0,4.2514,4.2527,4.2572,4.2625,4.2663,4.2705,4.2747,4.2772,4.2807,4.2845,4.2902,4.2938,4.3011,4.3068,4.3127,4.3156,4.3164,4.3168,4.3179,4.3171,4.3158,4.3166,4.3068,4.3164,4.3163,4.3163,4.3163,4.3163,4.2556,4.2591,4.2637,4.2688,4.2724,4.2764,4.2802,4.2833,4.288,4.2941,4.2956,4.3016,4.3065,4.3145,4.3177,4.3226,4.322,4.3236,4.324,4.3243,4.3244,4.3152,4.3237,4.3237,4.3237,4.3237,4.3237,0,4.262,4.2651,4.2698,4.2757,4.2799,4.2804,4.2852,4.2886,4.2939,4.2984,4.303,4.3098,4.3154,4.3197,4.3256,4.3287,4.3293,4.3302,4.3299,4.3306,4.3247,4.3231,4.3297,4.3297,4.3297,4.3297,4.3297,4.3297,4.2658,4.2719,4.2739,4.2819,4.285,4.2909,4.2936,4.2975,4.301,4.3085,4.3132,4.316,4.3205,4.3267,4.3321,4.3332,4.3353,4.3361,4.3373,4.3317,4.331,4.3304,4.3289,4.3366,4.3366,4.3429,4.3429,4.343]},{"header":{"parameterUnit":"m.s-1","parameterCategory":1,"la1":30.2991,"la2":30.254,"lo1":-89.0895,"lo2":-89.0444,"dy":0.0017,"dx":0.0017,"nx":28,"ny":28,"refTime":"2024-02-22T03:00:00:Z","depth":0,"parameterNumber":3,"parameterNumberName":"V-component_of_WINDS"},"data":[0,0,0,0,0,0,0,0,0,0,0,0,0,0,0,0,0,0,0,0,0,0,0,0,0,0,0,0,0,0,0,0,0,0,0,0,0,0,0,0,0,0,0,0,0,0,0,0,0,0,0,0,0,0,0,0,0,0,1.5536,1.5539,0,1.5785,1.5787,1.579,1.5878,1.5877,1.5876,1.5876,1.6135,1.6142,1.615,0,0,0,0,0,0,0,0,0,0,0,0,0,1.5143,1.5149,1.5536,1.5539,1.5542,1.5784,1.5787,1.5791,1.5878,1.5877,1.5876,1.5875,1.6132,1.6141,1.6151,0,0,0,0,0,0,0,0,0,0,0,0,0,1.5345,1.5152,1.5536,1.5615,1.5625,1.5783,1.5788,1.5792,1.5879,1.5877,1.5876,1.5875,1.6129,1.6141,1.6152,1.6251,0,0,1.6188,1.6193,0,0,0,0,0,0,0,0,1.5333,1.5359,1.56,1.561,1.5621,1.5799,1.5744,1.5946,1.5879,1.5782,1.5876,1.5874,1.6025,1.6045,1.6094,1.6264,1.6275,1.6189,1.6196,1.6201,1.6204,0,0,0,0,0,0,0,1.5319,1.5349,1.5635,1.5604,1.5616,1.564,1.5667,1.5783,1.5908,1.5791,1.5798,1.5826,1.603,1.6083,1.6101,1.6279,1.6188,1.6199,1.6206,1.621,1.6543,1.6545,0,0,0,0,0,0,1.5291,1.5336,1.5627,1.5642,1.547,1.5648,1.5678,1.5743,1.5907,1.5931,1.5826,1.5829,1.6064,1.6087,1.6111,1.6239,1.6201,1.6211,1.6218,1.6541,1.6543,1.6545,0,0,0,0,0,0,1.5282,1.5316,1.5617,1.5491,1.5531,1.5656,1.5728,1.5749,1.5802,1.5934,1.5958,1.5857,1.6064,1.6094,1.6216,1.6249,1.6217,1.6227,1.6539,1.6542,1.6544,1.6494,0,0,0,0,0,0,1.527,1.5312,1.535,1.5491,1.5538,1.5716,1.573,1.5755,1.5821,1.5827,1.5969,1.5992,1.6065,1.6198,1.6227,1.6264,1.6236,1.6537,1.654,1.6544,1.6494,1.6495,1.6496,0,0,0,0,0,1.5256,1.5327,1.5352,1.5386,1.5587,1.5717,1.5744,1.5825,1.5823,1.5863,1.5949,1.5987,1.624,1.6209,1.6243,1.6284,1.6535,1.6539,1.6543,1.6493,1.6495,1.6496,0,0,0,0,0,0,1.5188,1.5347,1.5376,1.5494,1.5591,1.5732,1.5785,1.5825,1.5926,1.5927,1.6025,1.6056,1.617,1.624,1.6203,1.639,1.639,1.6401,1.634,1.6343,1.6344,1.6326,1.6246,0,0,0,0,0,1.5186,1.5277,1.5412,1.5504,1.5551,1.5659,1.5719,1.5773,1.5878,1.592,1.6014,1.6116,1.6219,1.6285,1.6387,1.6504,1.6537,1.6549,1.655,1.655,1.6559,1.6627,1.6635,1.6559,1.6559,1.6559,0,0,1.5185,1.5283,1.5335,1.5492,1.5574,1.5668,1.5693,1.5791,1.5862,1.5936,1.6056,1.6128,1.6249,1.6369,1.6426,1.643,1.6587,1.6556,1.6555,1.6564,1.6632,1.6639,1.6646,1.6562,1.6561,1.6561,0,0,1.523,1.5312,1.5398,1.5479,1.5602,1.5674,1.5694,1.5829,1.5879,1.6001,1.6058,1.6145,1.6319,1.6403,1.6469,1.6545,1.6585,1.6575,1.6583,1.6648,1.6654,1.666,1.6688,1.6697,1.6584,1.6583,1.6583,0,1.5213,1.5354,1.5438,1.5532,1.5601,1.567,1.5758,1.5834,1.5984,1.603,1.6032,1.6252,1.6338,1.6479,1.6497,1.6548,1.6575,1.656,1.6646,1.6653,1.6659,1.6687,1.6698,1.6582,1.6582,1.6582,1.6582,0,1.5328,1.5425,1.548,1.5621,1.5696,1.5787,1.5885,1.5951,1.5999,1.607,1.6194,1.63,1.6424,1.6461,1.651,1.661,1.6608,1.6626,1.6629,1.6663,1.6691,1.6703,1.6579,1.6579,1.658,1.6581,0,0,1.5337,1.5523,1.5542,1.5607,1.5748,1.5826,1.592,1.604,1.6095,1.6197,1.628,1.6425,1.6443,1.6517,1.6576,1.6633,1.6687,1.6645,1.6649,1.665,1.6805,1.6791,1.6802,1.6714,1.6717,1.6718,1.6795,0,1.5401,1.5571,1.5649,1.5786,1.5877,1.5945,1.6028,1.6123,1.6193,1.6283,1.6361,1.6462,1.6478,1.6523,1.6583,1.6668,1.672,1.6663,1.6794,1.6798,1.6762,1.6816,1.6802,1.6869,1.6807,1.6809,1.681,0,1.5498,1.5598,1.5742,1.5872,1.5914,1.5987,1.6103,1.6187,1.6298,1.6345,1.6427,1.6483,1.6587,1.6581,1.6727,1.6686,1.6744,1.6794,1.6799,1.6815,1.6806,1.6835,1.6892,1.6902,1.6828,1.6827,1.6825,0,1.5491,1.5662,1.5771,1.5824,1.5979,1.6028,1.6095,1.6204,1.6272,1.6374,1.642,1.6533,1.6596,1.6683,1.6769,1.6757,1.6906,1.6908,1.695,1.6947,1.6979,1.6976,1.7047,1.7014,1.7014,1.7014,1.7014,0,1.5554,1.564,1.5769,1.5836,1.5936,1.6025,1.6121,1.6193,1.629,1.6374,1.6439,1.6517,1.6625,1.6716,1.6784,1.6894,1.6922,1.6964,1.6981,1.6959,1.6953,1.6999,1.6997,1.7017,1.7016,1.7016,1.7015,0,1.5563,1.5653,1.5776,1.5912,1.5948,1.6015,1.6132,1.6201,1.6273,1.6378,1.6408,1.6523,1.6634,1.6727,1.6874,1.692,1.7035,1.7055,1.6997,1.7006,1.7043,1.7038,1.7147,1.7166,1.7118,1.7119,1.7119,0,1.5598,1.5665,1.5808,1.5868,1.5933,1.6029,1.6098,1.6189,1.6258,1.6389,1.6442,1.6558,1.6655,1.683,1.6927,1.704,1.7064,1.7094,1.7081,1.7057,1.7066,1.706,1.7068,1.7095,1.7095,1.7095,1.7095,0,1.565,1.5691,1.5787,1.5898,1.5978,1.6071,1.6165,1.6211,1.632,1.6395,1.6508,1.6583,1.6733,1.6847,1.697,1.7041,1.7087,1.7098,1.7114,1.7092,1.7056,1.7077,1.6999,1.7095,1.7095,1.7095,1.7095,1.7095,1.5674,1.5737,1.5847,1.5952,1.6032,1.6119,1.619,1.6271,1.6367,1.6494,1.6543,1.6659,1.677,1.694,1.7011,1.7105,1.7111,1.7133,1.714,1.7144,1.7141,1.704,1.7127,1.7127,1.7128,1.7128,1.7128,0,1.573,1.5804,1.5899,1.6029,1.6111,1.6145,1.6252,1.632,1.642,1.6519,1.6613,1.6744,1.6855,1.6961,1.7078,1.7133,1.7157,1.7161,1.7158,1.7174,1.7128,1.7103,1.7139,1.7139,1.7139,1.7139,1.7139,1.7139,1.5769,1.5878,1.5932,1.6083,1.6157,1.627,1.6328,1.6409,1.6488,1.6631,1.6723,1.6791,1.6893,1.7018,1.7123,1.7151,1.7192,1.719,1.7224,1.7179,1.7177,1.7175,1.7152,1.7198,1.7198,1.7262,1.7263,1.7263]}]]